Powrót do katalogu

SL-6 R/B(2)

AktywnyHEO
NORAD 22324·ROCKET BODY·🇷🇺 Russia

Wystrzelony Jan 26, 1993 z Plesetsk Cosmodrome

Loading…

Następne Przeloty (najbliższe 24 godziny)

TLE

ŚwieżeSource: Space-Track

Epoka: Sep 10, 2026, 20:08 UTC

1 22324U 93006D   26253.83899922  .00000103  00000-0  00000+0 0  9992
2 22324  68.2226 164.6240 4974309  92.0598 323.2318  2.03730335249972

Śledź SL-6 R/B(2) w czasie rzeczywistym z AllMySat

Download on the App Store